THAICOM 6

Last updated on Sun Dec 07 2025 00:02:48 GMT+0000 (Coordinated Universal Time)

1 39500U 14002A 25340.51359692 -.00000114 00000+0 00000+0 0 9993 2 39500 0.0773 108.2146 0001626 148.9005 81.8462 1.00272037 43525
UTC large
Height (km)
Speed (km/s)
/
Latitude / Longitude
Inclination (degrees)
Orbital Period (minutes)
Azimuth
Elevation
Range (km)
Doppler Factor

Next 0 passes for location: London (51.5072 / 0.1276)

Sorry there are no passes over London.